Wind_Speed
5 5 6 8 8 9 10 10 11 10 10 10 9 9 10 10 10 11 11 11 11 11 11 10 9 8 8 7 6 6 5 5 4 5 5 5 5 5 5 5 5 5 6
5 6 7 8 9 10 11 12 12 12 12 12 11 11 11 11 11 12 12 12 12 12 11 10 9 8 7 6 5 5 4 4 4 4 5 5 5 5 5 6 6 6 6
7 7 8 9 11 12 12 13 13 13 13 13 12 12 12 12 12 13 13 13 13 12 11 10 9 7 6 6 5 4 4 4 4 4 5 5 5 6 6 6 7 7 7
8 9 10 11 12 13 14 15 15 15 15 15 14 14 13 13 13 14 14 13 12 12 11 9 8 7 6 5 4 4 4 4 4 5 5 5 5 5 6 6 7 7 7
10 10 12 13 13 14 15 16 16 17 17 16 16 15 14 14 14 14 14 13 12 11 10 9 8 7 6 5 5 4 4 5 5 5 5 5 5 5 6 6 6 7 7
10 10 12 13 14 15 16 16 17 18 18 17 17 16 15 15 14 14 13 12 11 10 9 8 7 6 6 6 5 5 5 5 6 6 5 6 6 6 6 6 6 7 7
11 12 11 13 14 15 17 17 17 17 18 18 17 16 15 14 14 13 12 12 11 9 9 8 7 6 6 6 5 5 5 6 6 7 7 7 7 7 7 7 7 7 7
11 12 12 12 14 15 16 16 17 17 17 17 17 16 15 14 13 12 12 11 10 9 8 8 7 6 6 6 6 5 5 6 6 7 7 7 8 7 8 8 8 7 8
11 11 11 12 13 14 15 15 16 16 17 17 17 16 15 14 13 12 11 10 9 8 8 7 7 6 6 6 6 6 6 6 7 7 7 8 7 8 9 10 9 9 8
12 11 11 11 12 13 14 15 15 16 16 16 16 16 15 14 13 12 10 9 9 8 8 7 7 7 7 7 7 7 6 6 7 8 8 8 8 9 10 11 11 10 9
13 12 12 12 12 13 13 14 15 16 16 16 16 15 14 14 13 11 10 9 9 8 8 7 7 8 8 8 8 8 8 8 9 9 10 10 10 11 12 13 12 11 10
14 13 13 13 13 13 13 13 14 16 16 16 15 15 14 13 12 11 10 9 9 9 8 8 8 9 9 10 10 11 11 11 10 11 12 12 13 13 14 14 13 13 12
17 15 13 13 13 13 13 13 14 15 15 15 15 14 14 13 12 11 10 10 10 9 9 9 9 10 11 12 13 13 14 14 14 14 15 15 16 16 16 16 16 15 15
20 17 14 13 13 13 13 14 14 15 15 14 14 13 13 13 12 12 11 11 11 10 10 10 10 12 13 14 15 16 16 17 18 18 19 19 19 19 19 19 19 18 18
20 18 15 14 14 14 14 15 15 15 14 14 14 14 14 13 13 13 13 13 13 12 12 12 13 14 15 16 17 18 19 20 21 22 22 22 22 22 23 23 23 22 21
23 21 18 17 17 16 16 16 16 15 15 14 14 14 15 15 15 15 14 14 14 14 14 14 15 16 18 18 19 20 21 23 24 25 25 25 25 25 25 26 26 26 25
22 21 21 19 19 19 18 17 16 15 15 15 15 15 16 16 16 15 15 16 16 16 17 17 18 19 21 21 22 23 24 25 26 26 26 26 27 27 28 28 29 28 29
22 20 21 21 20 20 19 18 17 17 17 16 16 17 17 17 17 17 17 17 18 19 20 21 21 22 22 23 25 26 26 26 26 26 26 27 28 28 28 29 29 30 31
23 22 22 20 21 20 19 19 18 17 17 17 17 18 19 19 18 18 19 20 20 21 22 24 23 23 24 25 26 26 26 27 27 28 29 28 28 28 29 30 31 31 32
27 25 24 23 21 20 19 19 18 18 18 19 19 19 19 18 19 20 21 22 23 23 24 25 25 25 26 26 26 26 26 26 27 28 28 27 27 27 28 30 32 32 32
27 27 25 23 22 21 21 21 20 20 20 19 19 20 19 20 22 22 23 23 23 24 24 25 25 26 27 28 27 27 27 27 27 27 27 27 28 29 30 31 33 34 34
29 27 23 24 25 23 21 21 21 21 21 21 21 21 21 23 24 24 24 24 24 24 24 24 25 26 27 27 27 27 27 28 28 28 29 30 30 31 32 34 35 36 37
26 27 25 24 24 24 23 22 22 22 22 22 22 23 23 23 24 25 26 26 26 25 25 25 25 25 25 26 26 28 28 28 30 32 33 34 34 34 35 37 38 40 41
27 25 23 22 23 23 23 23 23 23 23 23 23 24 25 26 25 26 27 27 26 26 26 26 26 25 26 27 28 29 30 31 32 34 36 38 39 39 40 40 41 43 44
27 24 23 22 23 22 22 22 23 23 24 24 25 26 27 28 27 28 28 28 29 27 26 25 24 25 26 28 30 31 32 34 35 36 38 40 41 42 43 44 44 45 47
29 26 23 23 24 24 24 24 25 24 26 27 28 29 30 30 30 30 29 29 30 30 29 28 28 29 29 32 34 35 36 37 39 40 40 41 43 45 47 47 48 49 50
Wind_Direction
241 230 217 214 216 220 227 231 235 239 245 251 257 267 274 278 283 287 291 292 292 293 292 292 291 291 291 292 294 296 298 302 304 303 304 305 302 299 301 300 301 302 300
254 245 237 236 235 235 238 241 243 245 248 252 256 263 269 275 280 284 287 289 290 290 290 290 290 290 291 293 295 297 303 310 309 305 304 302 304 308 311 309 308 306 303
258 255 254 251 249 247 247 248 250 250 251 253 257 261 266 272 277 281 284 287 288 288 288 288 288 289 290 293 294 299 306 308 304 303 304 305 311 315 316 312 308 304 300
264 261 264 262 258 255 253 253 253 254 254 255 258 261 264 269 274 277 280 282 283 285 285 285 285 287 288 291 293 298 301 297 295 300 304 308 315 315 311 308 304 300 293
265 263 265 266 263 261 259 258 258 257 257 258 260 261 262 266 271 274 276 277 279 280 281 282 282 284 286 289 292 295 296 296 297 302 304 308 311 307 302 299 296 292 288
261 264 266 264 265 265 263 261 260 258 257 258 259 259 260 263 267 269 271 273 275 276 276 276 276 281 285 287 290 293 298 301 300 304 305 308 309 305 299 292 286 282 279
266 265 269 267 265 265 264 262 260 257 256 257 257 257 257 259 263 265 268 270 270 269 269 269 271 275 280 284 288 295 305 305 301 298 294 297 303 304 300 293 286 279 275
267 264 267 270 267 265 263 261 258 255 254 253 253 252 253 256 259 262 264 266 265 263 264 265 267 272 276 282 290 301 313 312 305 298 296 298 298 301 302 297 290 282 275
263 264 268 269 266 263 262 259 255 252 251 250 248 248 250 252 255 258 261 262 260 260 262 263 266 270 276 285 295 307 320 319 312 305 301 300 296 299 303 302 297 287 277
262 265 271 272 266 261 258 255 250 248 246 246 245 246 248 250 253 255 255 255 255 258 259 261 266 272 280 289 300 308 316 320 317 309 304 301 296 299 302 303 301 294 283
266 264 269 270 266 261 256 251 246 245 244 244 244 245 246 248 250 251 251 252 254 255 257 261 269 274 281 289 297 304 309 312 313 310 308 306 302 299 300 300 299 297 291
261 257 259 263 263 258 252 248 245 244 243 242 243 244 244 245 246 247 250 253 254 256 259 264 270 276 282 289 295 299 301 304 307 305 303 302 298 296 295 294 294 293 291
252 247 247 254 256 253 246 243 241 239 239 239 240 239 239 240 242 246 250 252 253 257 260 267 273 280 285 291 296 298 300 300 300 299 298 297 294 291 289 288 289 288 287
243 240 241 246 249 247 242 238 236 235 235 236 235 235 236 238 241 245 250 253 255 257 262 269 277 282 286 289 294 297 298 299 298 297 296 294 292 289 287 285 284 282 281
238 235 236 239 243 244 239 233 231 232 232 232 233 233 234 236 242 246 247 251 255 259 265 272 277 281 285 289 293 298 300 298 295 294 293 292 290 288 286 284 281 279 277
241 236 230 233 236 239 236 232 230 230 230 230 231 234 234 236 241 245 247 250 255 260 266 271 276 280 285 288 290 292 293 292 292 290 289 287 285 284 284 283 280 277 275
250 240 233 231 232 234 234 230 228 228 231 233 234 236 236 238 240 246 251 254 256 260 265 271 275 278 282 285 288 291 291 291 292 289 288 287 284 283 282 281 278 275 273
248 240 239 232 228 230 231 229 227 228 231 234 236 240 240 243 247 251 255 260 261 262 265 268 272 275 278 282 285 287 289 290 291 289 288 287 285 283 281 279 277 275 272
255 249 239 227 230 232 230 226 225 228 229 234 238 241 244 247 252 255 257 262 265 268 269 268 272 275 278 281 282 284 285 287 287 287 286 285 282 282 280 278 276 274 272
260 260 245 238 235 236 230 229 229 231 234 239 243 249 249 253 257 259 261 264 269 273 273 274 275 276 278 280 281 281 281 282 285 285 285 283 279 277 279 278 275 274 272
264 264 251 248 244 241 237 234 236 238 241 246 250 255 258 260 260 263 265 265 270 274 274 275 278 278 279 278 278 277 278 280 281 282 282 282 280 277 277 276 274 272 272
263 264 256 249 244 243 239 238 242 245 247 252 257 257 262 264 265 266 267 270 272 272 274 273 277 277 276 275 275 274 275 277 277 278 279 281 280 278 277 275 275 274 273
262 262 252 247 243 242 244 246 247 250 255 259 260 264 266 270 273 274 272 273 272 273 275 276 276 279 276 274 275 276 275 275 275 276 277 279 279 278 276 275 274 274 273
265 261 254 253 249 245 247 252 257 259 261 264 268 274 272 274 275 279 280 277 278 279 279 280 279 278 277 276 277 278 278 278 277 276 277 277 278 278 276 275 274 272 272
268 263 258 258 258 258 261 265 267 267 266 269 272 276 279 279 281 286 286 286 286 286 287 287 285 281 280 279 278 279 278 279 279 279 278 277 277 277 276 275 274 274 274
265 267 261 261 263 265 268 270 271 272 273 274 275 276 279 282 287 288 287 289 290 291 292 292 288 283 280 280 279 278 277 278 279 279 279 279 278 277 276 275 275 275 274
Height
5905 5905 5905 5906 5907 5908 5909 5910 5911 5911 5912 5912 5912 5913 5913 5912 5912 5912 5911 5911 5910 5909 5908 5907 5906 5906 5905 5904 5903 5903 5902 5902 5901 5901 5900 5899 5899 5898 5897 5897 5896 5895 5895
5904 5904 5905 5906 5907 5908 5909 5909 5910 5910 5911 5911 5911 5912 5912 5911 5911 5911 5910 5910 5909 5908 5907 5906 5905 5905 5904 5903 5902 5902 5901 5901 5900 5899 5899 5898 5897 5896 5896 5895 5895 5894 5894
5903 5903 5904 5905 5906 5907 5907 5908 5908 5909 5909 5910 5910 5910 5910 5910 5910 5909 5909 5908 5908 5907 5906 5905 5904 5904 5903 5902 5902 5901 5900 5899 5899 5898 5897 5897 5896 5895 5894 5894 5893 5893 5893
5902 5902 5903 5903 5904 5905 5905 5906 5907 5907 5908 5908 5909 5909 5909 5908 5908 5908 5908 5907 5907 5906 5905 5904 5904 5903 5902 5902 5901 5900 5899 5898 5897 5897 5896 5895 5894 5894 5893 5892 5892 5892 5892
5900 5900 5901 5901 5902 5902 5903 5904 5905 5905 5906 5906 5907 5907 5907 5907 5906 5906 5906 5906 5905 5905 5904 5903 5903 5902 5901 5901 5900 5899 5898 5897 5897 5896 5895 5894 5894 5893 5892 5891 5891 5891 5890
5898 5898 5898 5899 5899 5900 5900 5901 5902 5903 5903 5904 5904 5904 5904 5905 5905 5904 5904 5904 5904 5904 5903 5902 5902 5901 5901 5900 5899 5899 5898 5897 5896 5895 5894 5894 5893 5892 5891 5890 5890 5889 5889
5895 5896 5896 5896 5896 5897 5897 5898 5899 5900 5901 5901 5902 5902 5902 5902 5902 5902 5903 5903 5903 5902 5902 5901 5901 5900 5899 5899 5899 5898 5898 5897 5896 5895 5894 5893 5892 5892 5891 5890 5889 5888 5887
5892 5893 5893 5893 5893 5894 5894 5895 5896 5897 5897 5898 5899 5899 5900 5900 5900 5900 5901 5901 5901 5901 5901 5900 5900 5899 5898 5898 5898 5897 5897 5896 5895 5894 5893 5892 5892 5891 5890 5889 5888 5886 5886
5889 5890 5890 5890 5890 5891 5891 5892 5892 5893 5894 5895 5896 5897 5897 5897 5898 5898 5899 5899 5899 5899 5899 5898 5898 5898 5897 5897 5897 5897 5896 5896 5894 5893 5892 5891 5890 5890 5889 5888 5886 5885 5884
5886 5887 5887 5887 5888 5888 5888 5889 5889 5890 5891 5892 5893 5894 5894 5895 5895 5896 5896 5897 5897 5897 5897 5897 5896 5896 5896 5895 5895 5895 5895 5894 5893 5892 5891 5890 5889 5888 5887 5887 5885 5884 5883
5883 5884 5884 5885 5885 5885 5885 5885 5886 5887 5888 5889 5890 5891 5892 5892 5893 5893 5894 5894 5895 5895 5895 5895 5895 5894 5894 5893 5893 5892 5893 5892 5892 5891 5890 5889 5888 5887 5886 5885 5884 5882 5881
5880 5881 5881 5882 5882 5882 5882 5882 5883 5884 5885 5886 5887 5888 5889 5889 5890 5891 5891 5892 5892 5892 5892 5892 5892 5892 5891 5891 5890 5890 5890 5889 5889 5888 5887 5887 5886 5885 5884 5883 5881 5880 5879
5877 5877 5877 5878 5879 5879 5879 5879 5880 5881 5882 5883 5884 5885 5886 5886 5887 5888 5888 5889 5890 5890 5890 5890 5890 5889 5889 5888 5888 5887 5887 5886 5885 5885 5884 5883 5883 5882 5881 5880 5878 5877 5876
5873 5873 5874 5875 5875 5875 5876 5876 5877 5877 5878 5879 5880 5882 5883 5883 5884 5885 5885 5886 5886 5887 5887 5887 5886 5886 5885 5885 5884 5883 5883 5882 5881 5881 5880 5879 5878 5878 5877 5876 5874 5873 5872
5868 5869 5870 5871 5871 5872 5872 5873 5873 5874 5875 5876 5877 5878 5879 5880 5880 5881 5882 5882 5883 5883 5883 5883 5883 5882 5882 5881 5880 5879 5878 5877 5877 5876 5875 5874 5873 5872 5872 5871 5870 5869 5868
5863 5864 5865 5866 5867 5868 5869 5869 5870 5871 5872 5873 5874 5875 5876 5876 5877 5877 5878 5879 5879 5879 5880 5880 5879 5878 5878 5876 5876 5875 5874 5873 5872 5870 5869 5869 5867 5866 5866 5865 5864 5863 5863
5857 5859 5860 5861 5862 5863 5864 5865 5865 5867 5868 5869 5870 5871 5872 5872 5873 5873 5874 5875 5875 5875 5875 5875 5874 5874 5873 5872 5871 5870 5869 5867 5865 5864 5862 5861 5860 5859 5859 5858 5857 5856 5856
5853 5854 5856 5855 5857 5858 5860 5861 5862 5862 5863 5864 5865 5866 5866 5867 5868 5869 5869 5870 5870 5870 5870 5869 5869 5868 5867 5866 5865 5864 5862 5861 5859 5857 5856 5854 5853 5852 5852 5851 5850 5849 5848
5847 5849 5849 5849 5851 5854 5855 5856 5857 5858 5858 5860 5860 5861 5860 5862 5862 5863 5864 5864 5864 5864 5864 5864 5863 5862 5861 5860 5859 5857 5856 5854 5853 5851 5849 5848 5846 5845 5844 5843 5842 5842 5841
5843 5843 5843 5845 5846 5849 5850 5852 5853 5854 5855 5855 5856 5856 5855 5856 5857 5857 5857 5858 5858 5858 5857 5857 5857 5856 5855 5853 5852 5851 5849 5848 5846 5844 5842 5841 5839 5838 5837 5836 5835 5834 5834
5837 5838 5837 5839 5841 5843 5844 5846 5847 5848 5849 5850 5851 5850 5851 5851 5852 5851 5851 5852 5851 5851 5850 5850 5849 5848 5848 5846 5845 5844 5843 5841 5839 5837 5835 5834 5832 5831 5830 5829 5828 5827 5826
5830 5831 5832 5833 5835 5837 5838 5840 5842 5843 5844 5844 5844 5845 5845 5846 5846 5845 5845 5844 5844 5844 5843 5843 5842 5841 5840 5839 5838 5837 5836 5835 5832 5830 5828 5827 5825 5823 5822 5821 5819 5818 5817
5825 5825 5826 5828 5829 5831 5833 5835 5836 5837 5838 5838 5839 5840 5840 5840 5840 5839 5839 5838 5838 5837 5837 5836 5835 5834 5833 5832 5831 5830 5828 5827 5825 5823 5821 5819 5817 5815 5814 5812 5810 5809 5807
5821 5820 5820 5822 5823 5825 5827 5828 5829 5831 5832 5833 5834 5834 5834 5834 5833 5833 5832 5831 5831 5830 5829 5829 5828 5827 5826 5825 5824 5822 5821 5819 5817 5815 5813 5810 5808 5806 5804 5802 5800 5798 5796
5817 5816 5815 5817 5818 5820 5821 5822 5823 5825 5826 5827 5828 5828 5828 5827 5826 5826 5824 5823 5823 5822 5821 5820 5819 5819 5818 5817 5815 5813 5811 5809 5807 5806 5803 5801 5797 5795 5793 5791 5789 5787 5785
5812 5812 5811 5812 5814 5815 5816 5817 5818 5818 5819 5820 5820 5821 5820 5819 5819 5818 5817 5816 5815 5814 5813 5812 5811 5810 5809 5807 5806 5804 5802 5799 5797 5794 5792 5789 5786 5783 5781 5779 5776 5774 5772